星链-30183 (STARLINK-30183 )

导读 | 豆包AI

STARLINK-30183是美国太空探索技术公司(SpaceX)星链(Starlink)星座的卫星成员,于2023年7月24日发射升空,属于星链第二代低轨互联网卫星。星链计划旨在构建全球覆盖的卫星互联网星座,该卫星承担为全球偏远地区等提供高速互联网接入服务的任务,助力星链星座的组网建设与服务能力拓展。

Basic Information
目录编号:
57436
目录名称:
STARLINK-30183
国际标识:
2023-105G
轨道中心:
EARTH
卫星名称:
星链-30183
卫星全名:
星链-30183 (STARLINK-30183 )
卫星状态:
已陨落 最后检测时间 2026-01-31
发射日期:
2023-07-24 UTC
国别 :
美国 (US)
星等 :
--
Orbit Information
数据来源 国际轨道数据
星历时间: 2026-01-30T16:00:52+0800
轨道信息已过期90天
半长轴: 6586.597km
偏心率: 0.0014053
轨道倾角: 42.964°
近地点辐角 139.126°
升交点赤经 19.099°
平近点角 221.069°
近地点: 199.203km
远地点: 217.717km
周期: 88.665分钟
每日圈数: 16.24094
Detailed Information
固有亮度:
5
最大亮度:
0.3
卫星平台:
Starlink v2.0 mini
覆盖范围:
全球
运营商:
太空探索技术公司
运营商所在国:
美国
制造商(研发单位):
太空探索技术公司
制造商所在国:
美国
使用方式:
暂无
Satellite Introduction
星链(Starlink)计划是由太空探索技术公司(SpaceX)提出的一个巨型低轨卫星互联网星座项目,计划在2019年至2024年间在太空搭建由约1.2万颗卫星组成的“星链”网络,其中1584颗将部署在地球上空550千米处的近地轨道,并从2020年开始工作。该卫星仍在工作。